map of GZP home
GZP - Airport
Location
City:  Gazipasa, Antalya, Turkey
Name:Gazipasa Alanya Airport
ICAO:LTFG
IATA:GZP

Details
Type:Airport (Aerodrome, Airfield)
Use:Public/Civil
Latitude:3617'57"N (36.299167)
Longitude:3218'01"E (32.300278)
Elevation:92 ft (28 m)
Variation:5.24E (WMM2015v2 magnetic declination)
0.09 annual change
Runways:1
Longest:5988 × 123 ft (1825 × 37.5 m), paved

Time
Time Zone:UTC+3
Local Time:

Weather
METAR:LTFG 041350Z 25007KT 210V300 9999 FEW030 SCT200 17/08 Q1020

Related Locations
Nearby:
Farthest:RVV: 11575 mi / 18628 km
Raivavae, Tubuai Islands, Austral Islands, PF

Find:

   beyond  
but within

Other Information
Maps:
NOTAMs:
Links:
Sources:

  
  • flag of Turkey
  

Sectional Chart

Flight Planning
at skyvector.com

Satellite Image

Google Maps Satellite view

 

Copyright © 2004-2019 Karl L. Swartz. All rights reserved.
The Great Circle Mapper name and logo are trademarks of the Great Circle Mapper.
All other trademarks mentioned herein belong to their respective owners.
Please see credits for attibutions and further copyright information.

  Follow gcmap on Facebook Follow gcmap on Twitter GCmap on LinkedIn

hCard Microformat

Geo Microformat